Weather History for CWYY - October, 2013

Change the Weather History Date:

Sunday, October 13, 2013

  Actual Average Record
Temperature  
Mean Temperature 48 °F -  
Max Temperature 61 °F - - ()
Min Temperature 34 °F - - ()
Degree Days  
Heating Degree Days 18    
Moisture  
Dew Point 34 °F    
Average Humidity 62    
Maximum Humidity 94    
Minimum Humidity 24    
Precipitation  
Precipitation 0.00 in - - ()
Sea Level Pressure  
Sea Level Pressure 30.28 in    
Wind  
Wind Speed 3 mph ()    
Max Wind Speed 9 mph    
Max Gust Speed -    
T = Trace of Precipitation, MM = Missing Value Source: Averaged Metar Reports

Daily Weather History Graph

Daily Weather History Graph

Search for Another Location

Airport or City:

Trip Planner

Search our weather history database for the weather conditions in past years. The results will help you decide how hot, cold, wet, or windy it might be!

Date:

Astronomy

Oct. 13, 2013 Rise Set
Actual Time 7:15 AM PDT 6:11 PM PDT
Civil Twilight 6:43 AM PDT 6:42 PM PDT
Nautical Twilight 6:07 AM PDT 7:19 PM PDT
Astronomical Twilight 5:30 AM PDT 7:56 PM PDT
Moon 3:29 PM PDT (10/13) 1:03 AM PDT (10/13)
Length of Visible Light 11h 58m
Length of Day
10h 55m
Waxing Gibbous, 70% of the Moon is Illuminated
Oct 13
Waxing Gibbous
Oct 18
Full
Oct 26
Last Quarter
Nov 3
New
Nov 9
First Quarter

Hourly Weather History & Observations

Time (PDT) Temp. Dew Point Humidity Pressure Visibility Wind Dir Wind Speed Gust Speed Precip Events Conditions
12:00 AM 49.6 °F 38.1 °F 65% 30.21 in - NNW 5.8 mph - N/A   Unknown
1:00 AM 46.8 °F 37.2 °F 69% 30.22 in - NNE 3.5 mph - N/A   Unknown
2:00 AM 43.3 °F 36.3 °F 76% 30.24 in - ESE 1.2 mph - N/A   Unknown
3:00 AM 42.4 °F 35.8 °F 77% 30.25 in - NNE 1.2 mph - N/A   Unknown
4:00 AM 36.9 °F 34.2 °F 90% 30.26 in - ENE 2.3 mph - N/A   Unknown
5:00 AM 36 °F 34 °F 88% 30.27 in - ENE 2.3 mph - -  
5:00 AM 36.0 °F 33.8 °F 92% 30.27 in - ENE 2.3 mph - N/A   Unknown
6:00 AM 36.0 °F 34.0 °F 93% 30.27 in - Calm Calm - N/A   Unknown
7:00 AM 35.8 °F 34.0 °F 93% 30.29 in - Calm Calm - N/A   Unknown
8:00 AM 35.1 °F 33.6 °F 94% 30.30 in - ENE 1.2 mph - N/A   Unknown
9:00 AM 43.7 °F 39.0 °F 84% 30.31 in - ENE 1.2 mph - N/A   Unknown
10:00 AM 49.1 °F 38.1 °F 66% 30.31 in - ENE 1.2 mph - N/A   Unknown
11:00 AM 54 °F 33 °F 32% 30.29 in - WNW 5.8 mph - -  
11:00 AM 54.5 °F 31.5 °F 42% 30.29 in - WNW 5.8 mph - N/A   Unknown
12:00 PM 56.8 °F 32.9 °F 40% 30.27 in - NNW 9.2 mph - N/A   Unknown
1:00 PM 57.7 °F 29.1 °F 34% 30.27 in - NNW 9.2 mph - N/A   Unknown
2:00 PM 59.2 °F 30.0 °F 33% 30.26 in - NNW 8.1 mph - N/A   Unknown
3:00 PM 60.4 °F 33.3 °F 36% 30.25 in - NNW 5.8 mph - N/A   Unknown
4:00 PM 60.3 °F 30.7 °F 33% 30.25 in - NW 5.8 mph - N/A   Unknown
5:00 PM 60 °F 33 °F 24% 30.25 in - NNW 6.9 mph - -  
5:00 PM 59.5 °F 31.5 °F 35% 30.25 in - NNW 6.9 mph - N/A   Unknown
6:00 PM 55.8 °F 32.0 °F 41% 30.27 in - NW 3.5 mph - N/A   Unknown
7:00 PM 47.7 °F 36.3 °F 65% 30.30 in - ESE 1.2 mph - N/A   Unknown
8:00 PM 46.2 °F 35.2 °F 66% 30.32 in - East 1.2 mph - N/A   Unknown
9:00 PM 46.2 °F 34.5 °F 64% 30.33 in - NE 1.2 mph - N/A   Unknown
10:00 PM 45.0 °F 35.2 °F 69% 30.35 in - East 1.2 mph - N/A   Unknown
11:00 PM 43 °F 35 °F 63% 30.36 in - ENE 1.2 mph - -  
11:00 PM 43.3 °F 34.5 °F 71% 30.36 in - ENE 1.2 mph - N/A   Unknown